OPTUS-X

导读 | 星芒AI

OPTUS-X 是澳大利亚的一系列通信卫星,由 Optus 公司运营,主要用于提供宽带互联网、电视广播和企业通信服务。该系列卫星采用先进技术,提供高带宽和低延迟,覆盖澳大利亚及周边地区。OPTUS-X 卫星增强了偏远地区的通信能力,支持政府和商业用户的多种需求。其部署提升了国家通信基础设施的稳定性和效率。

基本信息
目录编号:
62006
目录名称:
ADS-01
国际标识:
2024-212A
轨道中心:
EARTH
卫星名称:
OPTUS-X
卫星全名:
OPTUS-X
卫星状态:
在轨 (已飞行391 天)
发射日期:
2024-11-17 UTC
国别 :
澳大利亚 (AU)
星等 :
--
轨道信息
数据来源 国际轨道数据 AOE轨道数据
星历时间 2025-12-13T13:33:10+0800
18小时前
查看轨道信息
2025-12-14T01:00:00+0800
6小时前
查看轨道信息
半长轴 42164.896km 42164.953km
偏心率 0.0001081 0.0000984
轨道倾角 0.033° 0.035°
近地点辐角 197.768° 192.589°
升交点赤经 74.912° 76.531°
平近点角 32.354° 208.092°
近地点 35782.202km 35782.668km
远地点 35791.32km 35790.968km
周期 1436.105分钟 1436.108分钟
每日圈数 1.002712 1.00271
详细信息
使用方式:
暂无
2D轨道图
3D轨道图
轨道高度分析图
轨道倾角分析图
轨道综合分析图
查看轨道综合分析图